Time,TemperatureF,DewpointF,PressureIn,WindDirection,WindDirectionDegrees,WindSpeedMPH,WindSpeedGustMPH,Humidity,HourlyPrecipIn,Conditions,Clouds,dailyrainin,SoftwareType,DateUTC
2013-02-10 00:01:00,13.0,-1.0,30.17,NNW,328,11.0,18.0,53,-99.99,,,-99.99,,2013-02-10 05:01:00,
2013-02-10 00:11:00,13.0,-1.0,30.17,NNW,328,11.0,18.0,53,-99.99,,,-99.99,,2013-02-10 05:11:00,
2013-02-10 00:22:00,13.0,-1.0,30.18,NW,320,11.0,17.0,53,0.00,,,0.00,,2013-02-10 05:22:00,
2013-02-10 00:32:00,13.0,-1.0,30.17,NNW,332,12.0,18.0,53,0.00,,,0.00,,2013-02-10 05:32:00,
2013-02-10 00:41:00,13.0,-1.0,30.17,NNW,332,12.0,18.0,53,0.00,,,0.00,,2013-02-10 05:41:00,
2013-02-10 00:52:00,12.0,-2.0,30.19,NNW,329,11.0,18.0,53,0.00,,,0.00,,2013-02-10 05:52:00,
2013-02-10 01:02:00,12.0,-2.0,30.19,North,349,9.0,19.0,53,0.00,,,0.00,,2013-02-10 06:02:00,
2013-02-10 01:11:00,12.0,-2.0,30.19,North,349,9.0,19.0,53,0.00,,,0.00,,2013-02-10 06:11:00,
2013-02-10 01:21:00,12.0,-2.0,30.19,NNW,328,14.0,20.0,53,0.00,,,0.00,,2013-02-10 06:21:00,
2013-02-10 01:32:00,12.0,-2.0,30.18,NNW,333,10.0,20.0,53,0.00,,,0.00,,2013-02-10 06:32:00,
2013-02-10 01:42:00,12.0,-2.0,30.18,NNW,333,10.0,20.0,53,0.00,,,0.00,,2013-02-10 06:42:00,
2013-02-10 01:52:00,12.0,-2.0,30.19,NW,320,8.0,18.0,53,0.00,,,0.00,,2013-02-10 06:52:00,
2013-02-10 02:01:00,12.0,-2.0,30.20,North,351,6.0,14.0,52,0.00,,,0.00,,2013-02-10 07:01:00,
2013-02-10 02:11:00,12.0,-2.0,30.20,North,351,6.0,14.0,52,0.00,,,0.00,,2013-02-10 07:11:00,
2013-02-10 02:21:00,12.0,-2.0,30.20,North,352,8.0,14.0,52,0.00,,,0.00,,2013-02-10 07:21:00,
2013-02-10 02:32:00,11.0,-3.0,30.21,WNW,299,5.0,13.0,53,0.00,,,0.00,,2013-02-10 07:32:00,
2013-02-10 02:42:00,11.0,-3.0,30.21,WNW,299,5.0,13.0,53,0.00,,,0.00,,2013-02-10 07:42:00,
2013-02-10 02:52:00,11.0,-2.0,30.22,NW,326,7.0,10.0,54,0.00,,,0.00,,2013-02-10 07:52:00,
2013-02-10 03:01:00,10.0,-3.0,30.22,NNW,330,2.0,12.0,56,0.00,,,0.00,,2013-02-10 08:01:00,
2013-02-10 03:11:00,10.0,-3.0,30.22,NNW,330,2.0,12.0,56,0.00,,,0.00,,2013-02-10 08:11:00,
2013-02-10 03:21:00,10.0,-3.0,30.22,NNW,342,8.0,13.0,55,0.00,,,0.00,,2013-02-10 08:21:00,
2013-02-10 03:32:00,11.0,-3.0,30.22,NW,304,8.0,13.0,53,0.00,,,0.00,,2013-02-10 08:32:00,
2013-02-10 03:43:00,11.0,-3.0,30.22,NW,304,8.0,13.0,53,0.00,,,0.00,,2013-02-10 08:43:00,
2013-02-10 03:52:00,10.0,-3.0,30.21,NNW,342,4.0,10.0,55,0.00,,,0.00,,2013-02-10 08:52:00,
2013-02-10 04:02:00,10.0,-3.0,30.23,NW,321,8.0,12.0,54,0.00,,,0.00,,2013-02-10 09:02:00,
2013-02-10 04:11:00,10.0,-3.0,30.23,NW,321,8.0,12.0,54,0.00,,,0.00,,2013-02-10 09:11:00,
2013-02-10 04:21:00,10.0,-4.0,30.22,NW,326,6.0,9.0,53,0.00,,,0.00,,2013-02-10 09:21:00,
2013-02-10 04:32:00,10.0,-4.0,30.24,WNW,298,7.0,10.0,53,0.00,,,0.00,,2013-02-10 09:32:00,
2013-02-10 04:42:00,10.0,-4.0,30.24,WNW,298,7.0,10.0,53,0.00,,,0.00,,2013-02-10 09:42:00,
2013-02-10 04:52:00,9.0,-4.0,30.25,NW,320,9.0,11.0,54,0.00,,,0.00,,2013-02-10 09:52:00,
2013-02-10 05:01:00,9.0,-5.0,30.26,NW,315,8.0,12.0,53,0.00,,,0.00,,2013-02-10 10:01:00,
2013-02-10 05:11:00,10.0,-4.0,30.26,NW,326,7.0,12.0,52,0.00,,,0.00,,2013-02-10 10:11:00,
2013-02-10 05:21:00,10.0,-4.0,30.26,NW,326,7.0,12.0,52,0.00,,,0.00,,2013-02-10 10:21:00,
2013-02-10 05:31:00,10.0,-4.0,30.26,NNW,343,9.0,12.0,53,0.00,,,0.00,,2013-02-10 10:31:00,
2013-02-10 05:42:00,10.0,-4.0,30.26,NNW,343,9.0,12.0,53,0.00,,,0.00,,2013-02-10 10:42:00,
2013-02-10 05:52:00,11.0,-3.0,30.27,NW,325,9.0,15.0,52,0.00,,,0.00,,2013-02-10 10:52:00,
2013-02-10 06:01:00,11.0,-3.0,30.27,NNW,341,9.0,17.0,52,0.00,,,0.00,,2013-02-10 11:01:00,
2013-02-10 06:11:00,11.0,-3.0,30.27,NNW,341,9.0,17.0,52,0.00,,,0.00,,2013-02-10 11:11:00,
2013-02-10 06:22:00,11.0,-3.0,30.27,NW,321,8.0,16.0,52,0.00,,,0.00,,2013-02-10 11:22:00,
2013-02-10 06:32:00,11.0,-4.0,30.27,NNW,329,11.0,17.0,51,0.00,,,0.00,,2013-02-10 11:32:00,
2013-02-10 06:42:00,11.0,-4.0,30.27,NNW,329,11.0,17.0,51,0.00,,,0.00,,2013-02-10 11:42:00,
2013-02-10 06:52:00,11.0,-4.0,30.29,NW,308,11.0,18.0,50,0.00,,,0.00,,2013-02-10 11:52:00,
2013-02-10 07:02:00,11.0,-4.0,30.30,WNW,284,7.0,14.0,51,0.00,,,0.00,,2013-02-10 12:02:00,
2013-02-10 07:12:00,11.0,-4.0,30.30,WNW,284,7.0,14.0,51,0.00,,,0.00,,2013-02-10 12:12:00,
2013-02-10 07:21:00,10.0,-4.0,30.30,NW,325,5.0,11.0,51,0.00,,,0.00,,2013-02-10 12:21:00,
2013-02-10 07:32:00,10.0,-4.0,30.31,NW,324,3.0,10.0,53,0.00,,,0.00,,2013-02-10 12:32:00,
2013-02-10 07:42:00,10.0,-4.0,30.31,NW,324,3.0,10.0,53,0.00,,,0.00,,2013-02-10 12:42:00,
2013-02-10 07:52:00,10.0,-4.0,30.32,NNW,338,11.0,16.0,53,0.00,,,0.00,,2013-02-10 12:52:00,
2013-02-10 08:02:00,11.0,-3.0,30.32,NNW,330,6.0,14.0,52,0.00,,,0.00,,2013-02-10 13:02:00,
2013-02-10 08:11:00,11.0,-3.0,30.32,NNW,330,6.0,14.0,52,0.00,,,0.00,,2013-02-10 13:11:00,
2013-02-10 08:21:00,12.0,-3.0,30.33,NNW,336,8.0,12.0,51,0.00,,,0.00,,2013-02-10 13:21:00,
2013-02-10 08:31:00,13.0,-3.0,30.34,NW,326,7.0,13.0,49,0.00,,,0.00,,2013-02-10 13:31:00,
2013-02-10 08:41:00,13.0,-3.0,30.34,NW,326,7.0,13.0,49,0.00,,,0.00,,2013-02-10 13:41:00,
2013-02-10 08:52:00,15.0,-2.0,30.35,NNW,346,5.0,11.0,47,0.00,,,0.00,,2013-02-10 13:52:00,
2013-02-10 09:02:00,16.0,-2.0,30.34,NNW,337,7.0,12.0,43,0.00,,,0.00,,2013-02-10 14:02:00,
2013-02-10 09:11:00,16.0,-2.0,30.34,NNW,337,7.0,12.0,43,0.00,,,0.00,,2013-02-10 14:11:00,
2013-02-10 09:21:00,18.0,-2.0,30.35,NW,323,7.0,11.0,40,0.00,,,0.00,,2013-02-10 14:21:00,
2013-02-10 09:32:00,19.0,-1.0,30.35,NNW,339,9.0,15.0,40,0.00,,,0.00,,2013-02-10 14:32:00,
2013-02-10 09:41:00,19.0,-1.0,30.35,NNW,339,9.0,15.0,40,0.00,,,0.00,,2013-02-10 14:41:00,
2013-02-10 09:52:00,21.0,0.0,30.35,NW,316,6.0,14.0,39,0.00,,,0.00,,2013-02-10 14:52:00,
2013-02-10 10:02:00,22.0,0.0,30.35,NW,311,4.0,11.0,38,0.00,,,0.00,,2013-02-10 15:02:00,
2013-02-10 10:11:00,22.0,0.0,30.35,NW,311,4.0,11.0,38,0.00,,,0.00,,2013-02-10 15:11:00,
2013-02-10 10:22:00,23.0,-1.0,30.36,NW,324,10.0,15.0,35,0.00,,,0.00,,2013-02-10 15:22:00,
2013-02-10 10:32:00,24.0,0.0,30.35,North,358,5.0,13.0,35,0.00,,,0.00,,2013-02-10 15:32:00,
2013-02-10 10:42:00,24.0,0.0,30.35,North,358,5.0,13.0,35,0.00,,,0.00,,2013-02-10 15:42:00,
2013-02-10 10:52:00,25.0,0.0,30.36,NW,308,7.0,13.0,33,0.00,,,0.00,,2013-02-10 15:52:00,
2013-02-10 11:02:00,26.0,2.0,30.36,NNW,343,9.0,13.0,35,0.00,,,0.00,,2013-02-10 16:02:00,
2013-02-10 11:12:00,27.0,2.0,30.37,NW,324,4.0,15.0,34,0.00,,,0.00,,2013-02-10 16:12:00,
2013-02-10 11:22:00,27.0,2.0,30.37,NW,324,4.0,15.0,34,0.00,,,0.00,,2013-02-10 16:22:00,
2013-02-10 11:32:00,27.0,0.0,30.37,NW,318,6.0,12.0,31,0.00,,,0.00,,2013-02-10 16:32:00,
2013-02-10 11:42:00,29.0,3.0,30.36,WNW,289,9.0,12.0,32,0.00,,,0.00,,2013-02-10 16:42:00,
2013-02-10 11:52:00,29.0,3.0,30.36,WNW,289,9.0,12.0,32,0.00,,,0.00,,2013-02-10 16:52:00,
2013-02-10 12:02:00,29.0,3.0,30.37,NW,313,9.0,15.0,32,0.00,,,0.00,,2013-02-10 17:02:00,
2013-02-10 12:11:00,29.0,3.0,30.37,NW,313,9.0,15.0,32,0.00,,,0.00,,2013-02-10 17:11:00,
2013-02-10 12:22:00,30.0,2.0,30.37,WNW,292,6.0,12.0,29,0.00,,,0.00,,2013-02-10 17:22:00,
2013-02-10 12:32:00,31.0,4.0,30.36,NW,304,6.0,11.0,31,0.00,,,0.00,,2013-02-10 17:32:00,
2013-02-10 12:42:00,32.0,3.0,30.34,NNW,346,7.0,13.0,29,0.00,,,0.00,,2013-02-10 17:42:00,
2013-02-10 12:52:00,32.0,3.0,30.34,NNW,346,7.0,13.0,29,0.00,,,0.00,,2013-02-10 17:52:00,
2013-02-10 13:02:00,33.0,5.0,30.33,NNW,346,5.0,12.0,30,0.00,,,0.00,,2013-02-10 18:02:00,
2013-02-10 13:12:00,34.0,5.0,30.33,NW,326,5.0,11.0,29,0.00,,,0.00,,2013-02-10 18:12:00,
2013-02-10 13:22:00,34.0,5.0,30.33,NW,326,5.0,11.0,29,0.00,,,0.00,,2013-02-10 18:22:00,
2013-02-10 13:32:00,33.0,4.0,30.32,NW,322,5.0,9.0,29,0.00,,,0.00,,2013-02-10 18:32:00,
2013-02-10 13:42:00,33.0,4.0,30.32,NW,322,5.0,9.0,29,0.00,,,0.00,,2013-02-10 18:42:00,
2013-02-10 13:52:00,34.0,3.0,30.32,WNW,299,3.0,7.0,26,0.00,,,0.00,,2013-02-10 18:52:00,
2013-02-10 14:02:00,34.0,5.0,30.32,NNE,15,3.0,8.0,29,0.00,,,0.00,,2013-02-10 19:02:00,
2013-02-10 14:12:00,36.0,4.0,30.32,WNW,289,4.0,5.0,26,0.00,,,0.00,,2013-02-10 19:12:00,
2013-02-10 14:22:00,36.0,4.0,30.32,WNW,289,4.0,5.0,26,0.00,,,0.00,,2013-02-10 19:22:00,
2013-02-10 14:32:00,35.0,4.0,30.32,WNW,289,8.0,10.0,27,0.00,,,0.00,,2013-02-10 19:32:00,
2013-02-10 14:42:00,35.0,4.0,30.32,WNW,298,8.0,10.0,26,0.00,,,0.00,,2013-02-10 19:42:00,
2013-02-10 14:52:00,35.0,4.0,30.32,WNW,298,8.0,10.0,26,0.00,,,0.00,,2013-02-10 19:52:00,
2013-02-10 15:02:00,35.0,4.0,30.33,NNW,335,6.0,11.0,26,0.00,,,0.00,,2013-02-10 20:02:00,
2013-02-10 15:11:00,35.0,4.0,30.33,NNW,335,6.0,11.0,26,0.00,,,0.00,,2013-02-10 20:11:00,
2013-02-10 15:22:00,35.0,4.0,30.32,WSW,254,5.0,9.0,26,0.00,,,0.00,,2013-02-10 20:22:00,
2013-02-10 15:32:00,35.0,4.0,30.32,NW,316,6.0,9.0,26,0.00,,,0.00,,2013-02-10 20:32:00,
2013-02-10 15:42:00,36.0,5.0,30.33,West,281,3.0,7.0,27,0.00,,,0.00,,2013-02-10 20:42:00,
2013-02-10 15:52:00,36.0,5.0,30.33,West,281,3.0,7.0,27,0.00,,,0.00,,2013-02-10 20:52:00,
2013-02-10 16:02:00,36.0,4.0,30.34,West,267,6.0,8.0,26,0.00,,,0.00,,2013-02-10 21:02:00,
2013-02-10 16:11:00,36.0,4.0,30.34,West,267,6.0,8.0,26,0.00,,,0.00,,2013-02-10 21:11:00,
2013-02-10 16:22:00,36.0,5.0,30.32,WSW,245,0.0,7.0,27,0.00,,,0.00,,2013-02-10 21:22:00,
2013-02-10 16:32:00,36.0,4.0,30.33,West,271,4.0,6.0,25,0.00,,,0.00,,2013-02-10 21:32:00,
2013-02-10 16:42:00,35.0,6.0,30.32,WNW,291,2.0,6.0,29,0.00,,,0.00,,2013-02-10 21:42:00,
2013-02-10 16:52:00,35.0,6.0,30.32,WNW,291,2.0,6.0,29,0.00,,,0.00,,2013-02-10 21:52:00,
2013-02-10 17:02:00,34.0,9.0,30.31,WNW,292,3.0,5.0,35,0.00,,,0.00,,2013-02-10 22:02:00,
2013-02-10 17:11:00,32.0,6.0,30.32,WNW,292,1.0,4.0,33,0.00,,,0.00,,2013-02-10 22:11:00,
2013-02-10 17:22:00,32.0,6.0,30.32,WNW,292,1.0,4.0,33,0.00,,,0.00,,2013-02-10 22:22:00,
2013-02-10 17:32:00,31.0,3.0,30.32,WNW,288,4.0,6.0,29,0.00,,,0.00,,2013-02-10 22:32:00,
2013-02-10 17:42:00,31.0,5.0,30.32,NW,314,2.0,6.0,33,0.00,,,0.00,,2013-02-10 22:42:00,
2013-02-10 17:53:00,31.0,5.0,30.32,NW,314,2.0,6.0,33,0.00,,,0.00,,2013-02-10 22:53:00,
2013-02-10 18:02:00,29.0,4.0,30.33,NW,316,2.0,5.0,33,0.00,,,0.00,,2013-02-10 23:02:00,
2013-02-10 18:11:00,29.0,4.0,30.33,NW,316,2.0,5.0,33,0.00,,,0.00,,2013-02-10 23:11:00,
2013-02-10 18:22:00,27.0,0.0,30.32,NW,316,1.0,5.0,30,0.00,,,0.00,,2013-02-10 23:22:00,
2013-02-10 18:32:00,27.0,0.0,30.32,NW,317,2.0,3.0,31,0.00,,,0.00,,2013-02-10 23:32:00,
2013-02-10 18:42:00,26.0,-1.0,30.32,NW,316,3.0,4.0,30,0.00,,,0.00,,2013-02-10 23:42:00,
2013-02-10 18:52:00,26.0,-1.0,30.32,NW,316,3.0,4.0,30,0.00,,,0.00,,2013-02-10 23:52:00,
2013-02-10 19:02:00,26.0,-1.0,30.33,NW,316,3.0,4.0,30,0.00,,,0.00,,2013-02-11 00:02:00,
2013-02-10 19:11:00,26.0,0.0,30.33,NW,316,0.0,3.0,31,0.00,,,0.00,,2013-02-11 00:11:00,
2013-02-10 19:22:00,26.0,0.0,30.33,NW,316,0.0,3.0,31,0.00,,,0.00,,2013-02-11 00:22:00,
2013-02-10 19:32:00,26.0,0.0,30.33,WNW,292,3.0,4.0,31,0.00,,,0.00,,2013-02-11 00:32:00,
2013-02-10 19:42:00,26.0,0.0,30.34,WNW,289,1.0,4.0,32,0.00,,,0.00,,2013-02-11 00:42:00,
2013-02-10 19:52:00,26.0,0.0,30.34,WNW,289,1.0,4.0,32,0.00,,,0.00,,2013-02-11 00:52:00,
2013-02-10 20:01:00,26.0,1.0,30.33,WNW,285,2.0,5.0,33,0.00,,,0.00,,2013-02-11 01:01:00,
2013-02-10 20:11:00,26.0,1.0,30.33,WNW,285,2.0,5.0,33,0.00,,,0.00,,2013-02-11 01:11:00,
2013-02-10 20:21:00,26.0,2.0,30.33,South,172,2.0,5.0,35,0.00,,,0.00,,2013-02-11 01:21:00,
2013-02-10 20:32:00,26.0,3.0,30.33,South,172,1.0,4.0,36,0.00,,,0.00,,2013-02-11 01:32:00,
2013-02-10 20:42:00,25.0,1.0,30.34,South,172,0.0,2.0,35,0.00,,,0.00,,2013-02-11 01:42:00,
2013-02-10 20:52:00,25.0,1.0,30.34,South,172,0.0,2.0,35,0.00,,,0.00,,2013-02-11 01:52:00,
2013-02-10 21:01:00,25.0,1.0,30.34,South,188,1.0,5.0,35,0.00,,,0.00,,2013-02-11 02:01:00,
2013-02-10 21:11:00,25.0,1.0,30.34,South,188,1.0,5.0,35,0.00,,,0.00,,2013-02-11 02:11:00,
2013-02-10 21:21:00,25.0,1.0,30.33,SSW,195,1.0,8.0,35,0.00,,,0.00,,2013-02-11 02:21:00,
2013-02-10 21:32:00,25.0,1.0,30.33,SSW,195,0.0,6.0,35,0.00,,,0.00,,2013-02-11 02:32:00,
2013-02-10 21:42:00,25.0,2.0,30.33,SSW,197,4.0,8.0,36,0.00,,,0.00,,2013-02-11 02:42:00,
2013-02-10 21:52:00,25.0,2.0,30.33,SSW,197,4.0,8.0,36,0.00,,,0.00,,2013-02-11 02:52:00,
2013-02-10 22:02:00,25.0,2.0,30.33,SSW,208,2.0,9.0,36,0.00,,,0.00,,2013-02-11 03:02:00,
2013-02-10 22:11:00,24.0,2.0,30.33,South,191,2.0,5.0,38,0.00,,,0.00,,2013-02-11 03:11:00,
2013-02-10 22:21:00,24.0,2.0,30.33,South,191,2.0,5.0,38,0.00,,,0.00,,2013-02-11 03:21:00,
2013-02-10 22:32:00,23.0,2.0,30.32,South,191,2.0,6.0,40,0.00,,,0.00,,2013-02-11 03:32:00,
2013-02-10 22:42:00,23.0,3.0,30.32,SSW,208,3.0,8.0,41,0.00,,,0.00,,2013-02-11 03:42:00,
2013-02-10 22:52:00,23.0,3.0,30.32,SSW,208,3.0,8.0,41,0.00,,,0.00,,2013-02-11 03:52:00,
2013-02-10 23:01:00,23.0,3.0,30.32,SSW,204,1.0,6.0,41,0.00,,,0.00,,2013-02-11 04:01:00,
2013-02-10 23:11:00,23.0,3.0,30.32,SSW,204,1.0,6.0,41,0.00,,,0.00,,2013-02-11 04:11:00,
2013-02-10 23:22:00,22.0,2.0,30.32,SSW,206,1.0,6.0,41,0.00,,,0.00,,2013-02-11 04:22:00,
2013-02-10 23:32:00,22.0,2.0,30.33,SSW,207,3.0,7.0,42,0.00,,,0.00,,2013-02-11 04:32:00,
2013-02-10 23:42:00,22.0,3.0,30.32,SSW,209,3.0,8.0,44,0.00,,,0.00,,2013-02-11 04:42:00,
2013-02-10 23:52:00,22.0,3.0,30.32,SSW,209,3.0,8.0,44,0.00,,,0.00,,2013-02-11 04:52:00,